Location: Audinghen
(50.8518°N, 1.6129°E)
Time: 06:43:32
(UTC+00:00)

DNEPR-1 R/B - Pass Details

Date: 07 August 2020
Orbit: 572 x 1350 km, 64.6° (Epoch: 26 September)

Event Time Altitude Azimuth Distance (km) Brightness Sun altitude
Rises 01:16:49 0° 317° (NW) 3,766 7.9 -20.7°
Reaches altitude 10° 01:19:40 10° 319° (NW) 2,684 7.1 -20.5°
Maximum altitude 01:25:51 80° 46° (NE) 827 4.2 -20.2°
Drops below altitude 10° 01:30:49 10° 134° (SE) 2,176 6.1 -19.9°
Enters shadow 01:31:05 - 135° (SE) 2,278 6.2 -19.9°
